Lapse_Rate
5.9 6.1 6.2 6.5 5.8 5.8 5.5 6.1 6.1 6.4 6.4 4.3 3.8 2.8 2.8 2.9 2.9 2.4 2.3 1.9 1.9 2.0 2.5 3.2 3.8 3.4 2.9 2.2 2.0 1.9 1.8 2.0 2.4 2.6 2.3 2.8 3.2 4.2
5.1 5.6 6.2 6.0 5.9 5.7 5.9 6.3 5.9 6.5 6.9 6.2 4.5 2.4 3.6 2.6 2.2 1.5 1.6 2.1 2.7 2.0 1.8 2.3 2.9 2.2 2.4 1.8 1.3 1.2 1.1 1.4 1.6 2.1 2.3 3.2 3.3 4.0
4.5 5.8 5.9 6.0 6.5 5.9 5.5 5.8 5.7 6.1 6.3 6.6 4.9 2.9 2.2 2.5 1.4 1.6 1.1 0.7 0.7 1.3 1.3 1.4 1.8 1.5 1.3 1.0 0.7 0.7 1.0 1.1 1.2 1.8 2.1 3.0 2.9 3.6
6.7 5.7 5.4 5.3 5.1 5.3 4.8 5.5 5.7 6.0 6.2 6.5 4.9 3.6 2.8 3.3 2.9 2.0 1.0 1.1 1.8 0.6 0.5 0.7 0.8 1.5 1.1 0.6 0.1 0.4 0.4 0.5 0.8 1.5 2.0 2.1 2.1 2.7
6.5 6.3 5.4 5.1 4.5 5.2 3.8 5.2 5.2 4.9 5.0 5.7 5.4 4.3 3.8 2.6 3.1 2.5 1.7 2.2 1.7 2.0 0.8 0.5 0.4 0.5 0.1 0.3 0.1 0.4 0.2 -0.2 0.6 0.9 1.1 1.1 1.5 1.5
5.6 5.6 5.1 4.8 4.9 4.9 4.7 4.4 5.4 5.6 5.6 5.5 5.6 4.5 3.2 1.2 2.7 3.2 2.5 2.3 1.9 1.7 1.0 0.5 0.2 -0.1 0.3 0.6 0.2 0.5 -0.2 -0.5 0.5 0.9 0.7 0.7 0.6 1.1
5.8 6.1 5.6 4.9 3.6 4.8 5.3 5.8 5.9 5.7 5.6 5.4 5.4 5.5 3.0 1.4 3.0 2.7 3.3 2.3 2.1 2.5 0.4 -0.2 -0.6 -0.5 0.0 0.4 0.4 -0.2 -0.7 -0.6 -0.1 1.0 1.2 0.7 0.9 0.5
6.0 6.0 5.0 3.3 3.5 3.4 3.4 4.1 5.3 5.5 5.9 5.7 5.3 5.5 5.5 4.6 4.0 3.1 3.0 3.3 4.6 1.8 1.8 0.3 -1.0 -0.2 -0.4 -0.4 -0.1 -0.3 -0.5 -0.2 0.4 0.8 0.8 1.2 1.6 1.2
4.7 4.5 5.0 4.8 3.1 4.9 3.6 3.3 3.4 3.5 4.8 5.9 5.9 5.8 5.8 5.2 4.7 3.5 3.5 3.5 4.4 1.7 2.9 2.1 0.0 -0.3 -0.2 -0.7 -0.9 -0.8 -0.6 -0.7 0.1 0.5 0.6 0.9 1.3 1.8
1.2 1.6 1.5 0.8 0.1 1.2 4.5 4.5 4.7 4.9 4.3 3.7 4.7 5.8 5.7 5.6 5.0 4.0 3.8 3.7 3.9 0.4 2.2 3.5 -0.1 0.7 0.0 -0.3 -0.4 -0.4 -0.5 -0.2 -0.2 -0.0 0.6 0.9 1.1 2.3
0.2 0.6 0.8 0.3 0.1 0.7 1.3 1.1 1.0 0.5 0.5 0.1 0.2 0.7 1.0 1.2 1.3 3.2 3.6 2.5 3.4 -0.7 -1.2 2.8 0.5 -0.0 -0.9 -1.0 -1.2 -0.1 -0.3 0.1 -0.1 0.1 0.8 1.3 1.6 2.1
0.8 0.5 0.2 1.3 1.0 0.9 0.8 0.8 0.6 0.3 0.3 0.6 0.7 1.0 1.0 1.1 1.0 1.6 1.7 2.0 4.0 1.7 -1.0 1.4 -1.3 -1.9 -1.0 -3.7 -1.7 -1.3 -0.7 -0.4 0.1 0.4 1.1 1.8 3.1 3.2
1.0 1.4 1.7 1.6 1.4 1.9 0.6 0.6 0.5 0.8 0.5 -0.0 -0.4 -0.1 0.1 0.3 0.1 0.4 0.9 1.8 2.8 3.9 2.4 1.5 -0.3 -0.7 -1.0 -1.7 -2.2 -1.3 -0.4 -0.2 0.1 0.8 2.2 3.2 3.7 3.4
1.9 2.2 1.9 2.9 2.1 1.3 1.1 1.3 0.9 0.2 -0.3 -0.8 -0.7 -0.5 -0.6 -0.3 -0.3 -0.4 -0.3 -0.1 1.0 1.5 1.6 2.6 2.5 3.3 1.6 0.5 0.9 -1.5 -0.3 -0.2 1.3 1.8 2.3 5.1 5.0 4.2
1.7 2.2 2.3 1.8 1.4 0.9 0.7 0.7 0.5 -0.3 -0.4 0.1 0.0 -0.1 -0.0 0.0 -1.0 -0.5 -1.0 -1.6 -1.7 -1.2 -0.3 0.6 2.7 3.6 3.8 5.2 3.5 1.1 0.9 0.7 1.3 3.2 4.7 4.9 5.0 4.7
2.0 1.4 1.2 0.7 0.3 -0.0 -0.4 -0.6 -0.6 -0.3 -0.3 0.2 0.4 0.6 0.4 1.0 1.3 1.1 1.0 1.1 1.5 1.1 -0.9 -0.6 1.0 2.8 4.1 4.3 4.9 4.1 3.4 2.4 1.7 3.7 4.4 4.9 4.9 4.9
1.6 0.5 -0.4 -1.1 -1.2 -1.2 -0.9 -0.8 -0.5 -0.1 0.0 1.0 2.1 3.5 4.1 4.0 4.4 5.5 5.5 5.5 6.5 6.5 6.0 4.4 2.8 3.0 3.7 4.1 4.5 4.4 3.8 2.7 2.4 3.1 3.8 3.9 4.0 4.5
0.9 -0.4 -0.2 0.2 0.4 1.0 1.6 2.0 2.4 2.5 2.2 2.0 1.7 1.9 1.8 2.0 2.8 3.6 6.4 6.8 6.2 6.4 6.3 5.5 3.6 3.6 3.9 3.4 3.7 4.5 4.0 3.7 2.5 2.0 4.4 4.6 3.2 2.7
1.0 1.6 1.9 2.3 2.5 2.5 1.8 0.9 0.4 0.9 1.2 1.7 2.4 2.7 3.2 3.8 5.8 6.4 6.7 6.6 6.6 6.9 5.9 5.3 4.8 5.4 6.3 6.3 3.9 3.4 4.2 3.3 3.4 3.0 2.6 2.5 3.0 2.1
2.6 3.1 2.9 2.4 1.5 0.9 0.7 1.0 1.2 1.5 1.7 2.7 3.7 4.0 4.6 6.6 7.0 7.0 7.1 6.9 7.1 7.0 6.5 6.0 4.9 5.4 5.7 6.4 4.0 3.0 3.0 3.6 3.5 2.5 2.8 2.2 1.6 1.8
2.4 2.5 2.3 1.7 1.5 1.5 1.7 1.7 1.9 2.2 3.4 3.9 4.6 5.1 5.3 6.5 6.7 7.0 7.0 7.7 7.8 6.9 6.8 6.5 5.8 6.5 4.8 4.3 4.2 3.4 3.0 3.3 2.6 2.2 2.5 2.8 2.3 2.1
2.6 2.3 2.0 1.9 1.9 1.8 2.1 2.5 2.9 3.3 3.7 4.0 4.5 4.4 4.9 6.0 6.5 6.6 6.8 6.9 6.9 6.8 5.9 6.8 4.5 4.5 5.0 6.1 5.5 3.2 3.5 4.3 4.2 3.7 3.3 3.0 3.3 4.1
2.3 2.5 2.5 2.6 2.5 2.6 2.8 3.1 3.3 3.8 4.8 4.9 4.7 4.0 4.9 5.3 6.0 6.1 6.3 6.2 5.9 6.2 6.6 5.9 4.4 4.4 5.6 6.1 4.7 3.7 4.5 5.3 5.2 5.8 6.1 6.5 5.7 3.5
Wind_Speed
12 13 11 9 8 8 6 7 8 9 10 4 4 4 6 11 15 17 16 20 22 22 22 22 22 19 21 19 17 16 14 14 14 14 13 13 14 14
9 11 12 9 8 8 8 10 9 11 12 8 7 6 7 8 15 15 15 15 21 23 24 24 24 21 22 21 19 17 16 16 15 15 15 15 13 13
6 11 13 12 9 10 9 10 10 10 12 10 5 5 5 7 5 11 14 14 13 25 24 23 24 22 21 21 20 18 18 17 16 17 16 16 14 12
14 12 12 7 10 7 6 11 11 11 10 14 6 3 4 6 6 7 7 11 14 18 23 21 20 21 20 21 20 20 19 19 20 19 18 18 15 13
14 16 16 15 12 10 10 10 8 7 9 9 7 5 4 3 4 5 6 8 10 15 21 25 24 23 22 22 22 22 22 22 21 19 19 19 18 13
9 14 15 15 16 14 12 14 12 11 11 11 11 7 5 3 6 6 6 7 7 12 17 19 22 24 24 24 25 25 23 21 22 22 20 19 18 17
8 11 14 15 17 16 10 12 12 11 10 10 10 9 4 3 9 6 9 8 11 9 8 8 8 12 19 27 26 27 26 24 24 25 24 22 21 20
9 10 7 13 16 20 19 18 16 13 13 11 9 9 12 11 8 10 9 7 10 8 9 10 8 12 11 20 30 30 30 30 29 27 25 25 23 21
4 4 5 3 7 12 19 21 19 19 20 14 14 12 12 10 12 11 13 11 14 4 10 10 8 13 11 19 29 35 35 34 32 29 26 25 22 20
8 7 9 7 8 5 9 12 17 15 10 7 11 12 11 11 12 15 16 16 14 1 10 11 6 9 10 12 26 33 35 33 33 30 28 26 23 23
11 11 8 8 13 11 6 8 7 7 6 9 8 9 9 8 5 3 5 5 7 4 6 7 6 6 6 10 12 31 33 33 32 31 30 28 25 24
8 8 17 10 16 15 9 7 7 7 7 8 8 8 9 9 11 5 3 3 6 3 4 6 3 3 3 3 10 10 16 32 34 32 31 30 26 13
7 6 6 16 17 15 15 8 7 4 7 5 5 5 5 6 4 4 3 4 5 7 1 3 2 1 3 1 3 8 11 12 14 19 32 32 30 20
7 5 8 14 17 19 13 16 15 11 6 5 5 6 6 6 7 7 6 4 4 7 6 6 3 2 2 2 4 2 7 9 11 12 14 24 29 27
7 12 16 16 15 13 19 19 15 7 6 6 6 5 5 6 7 7 4 4 5 6 7 4 7 10 7 9 4 4 4 7 10 10 11 12 13 12
10 9 12 13 16 13 11 11 7 6 6 5 6 5 5 6 6 5 7 9 10 10 3 7 7 9 11 11 11 8 8 6 10 10 10 10 9 9
7 6 6 7 7 7 7 8 7 8 8 7 7 8 8 8 9 9 6 7 7 9 9 5 4 7 8 10 7 8 9 8 9 10 10 9 7 9
6 6 8 7 8 7 7 6 7 9 7 6 6 8 8 8 10 9 8 10 9 9 9 8 3 2 2 4 8 8 8 8 6 8 7 9 6 4
7 7 6 6 6 6 7 8 10 9 10 7 7 8 9 9 12 10 9 9 10 10 10 8 6 7 10 11 2 6 6 6 8 7 6 3 6 5
6 6 6 7 8 9 9 9 8 8 9 8 8 8 8 9 9 9 9 10 9 10 10 9 7 9 11 11 3 2 3 4 6 7 4 4 6 14
6 6 7 7 7 7 7 7 8 8 9 9 8 8 9 9 10 10 10 17 17 10 11 11 9 18 4 3 2 1 1 9 5 5 7 6 3 2
5 6 6 6 6 6 7 7 7 7 8 8 9 10 9 9 10 11 10 10 10 8 10 10 3 4 5 6 4 4 3 5 9 12 8 5 3 4
6 5 5 5 4 5 6 6 7 7 8 8 9 10 10 10 9 9 9 9 8 9 9 6 2 3 4 1 6 5 8 11 8 8 7 12 8 10
Wind_Direction
220 212 217 216 211 214 218 227 222 237 239 232 229 224 198 194 204 199 204 214 218 221 227 228 231 224 210 214 217 233 235 245 247 254 257 259 263 257
208 213 224 216 211 215 214 220 222 232 244 216 222 217 210 204 195 194 208 207 223 223 227 228 229 217 211 213 212 225 229 236 242 249 256 259 255 253
195 210 223 225 221 218 211 212 219 219 238 238 227 202 179 201 185 196 202 200 220 224 221 221 226 218 212 213 217 223 226 231 236 243 249 254 251 254
230 223 227 219 212 221 209 221 218 222 231 237 196 191 193 225 199 196 214 194 212 217 218 221 220 223 222 221 220 222 223 226 230 235 243 247 244 241
217 226 227 222 215 214 208 221 217 211 214 228 235 215 196 170 188 209 204 219 214 227 218 220 217 220 221 226 227 228 223 223 227 229 232 243 244 233
211 212 214 211 213 210 214 222 228 230 229 232 232 213 202 186 187 195 201 214 223 223 224 216 212 216 221 226 227 227 230 225 227 229 225 234 239 239
227 213 214 215 211 210 209 219 219 226 230 232 231 226 180 160 200 206 218 204 221 216 214 209 207 210 218 223 228 219 221 225 225 229 228 229 232 229
244 242 224 212 216 210 209 210 210 216 231 226 230 226 221 212 211 210 221 217 238 206 212 224 202 223 224 218 220 219 211 216 223 225 227 229 228 226
233 287 263 282 234 222 224 222 218 212 218 221 234 233 235 223 217 210 213 219 235 191 196 235 203 229 228 227 218 212 208 209 215 219 220 222 221 228
68 70 72 48 12 316 238 230 234 228 245 264 271 264 258 246 222 215 217 225 237 230 191 234 188 226 223 226 222 218 213 209 210 209 211 213 213 212
71 62 67 53 27 27 72 88 67 39 19 14 26 8 10 1 11 320 259 231 239 224 208 235 207 226 219 219 216 219 218 212 208 206 207 207 204 203
73 64 55 59 56 49 60 57 62 20 5 360 11 6 12 10 16 11 342 265 272 313 215 225 173 157 270 220 215 212 210 211 206 204 205 203 199 197
69 63 56 57 58 54 56 52 53 27 21 19 6 360 2 8 5 6 3 333 305 288 289 222 302 201 260 259 255 214 210 209 205 206 205 198 191 185
80 65 58 55 56 49 45 41 38 33 26 24 17 6 359 354 343 331 316 278 241 255 285 248 269 255 244 253 258 223 215 216 209 204 194 197 192 181
64 65 63 56 52 49 44 40 35 30 22 21 11 357 346 334 321 324 303 275 271 269 261 225 239 257 249 255 252 205 183 214 209 201 194 187 188 186
56 57 56 54 51 44 36 31 26 22 20 8 348 331 323 326 319 317 320 321 315 313 238 239 239 254 258 249 248 237 204 195 200 205 190 187 179 186
60 53 45 38 33 29 27 23 22 21 14 359 346 337 329 322 319 318 294 289 281 295 296 272 243 242 240 251 240 238 215 199 200 197 177 176 181 178
45 45 44 40 35 27 24 20 20 16 5 353 349 346 336 327 321 316 306 300 289 284 284 288 240 253 268 246 237 222 200 208 183 177 186 178 166 162
52 47 41 34 29 25 19 16 10 4 348 341 331 334 328 321 318 307 302 296 292 289 286 283 257 245 261 257 254 273 196 173 164 154 151 143 169 155
48 41 32 26 23 18 13 5 352 345 343 335 330 319 308 301 300 295 291 287 288 286 285 282 254 249 243 256 221 281 228 155 176 138 118 91 80 115
31 27 20 20 16 9 1 352 342 334 327 317 311 310 309 302 299 295 289 291 291 289 287 290 273 250 242 123 149 126 13 104 98 118 118 110 108 115
23 16 12 6 5 0 349 337 322 315 312 304 307 306 305 302 297 297 293 292 290 288 288 288 237 192 198 228 210 140 123 120 114 103 86 57 111 150
14 9 356 346 347 346 334 319 313 305 299 299 309 307 310 304 302 294 289 284 284 285 288 282 214 198 228 201 152 147 125 117 115 106 82 99 147 199